This is the latest recevied weather packets stored in our database for station/object KD5UMO-1. If no packets are shown the sender has not sent any weather packets the latest 10 day(s).
| Time | Temp. | Humidity | Pressure | Rain* | Wind** | Luminosity | Snow |
|---|---|---|---|---|---|---|---|
| 1778025452 | 25.56° C | 64% | 1005 hPa | 0 mm | - | 79 W/m² | - |
| 1778025150 | 26.11° C | 64% | 1005.1 hPa | 0 mm | - | 52 W/m² | - |
| 1778024847 | 26.11° C | 63% | 1004.8 hPa | 0 mm | - | 35 W/m² | - |
| 1778024545 | 26.67° C | 62% | 1005 hPa | 0 mm | - | 43 W/m² | - |
| 1778024241 | 27.22° C | 62% | 1005 hPa | 0 mm | - | 61 W/m² | - |
| 1778023939 | 27.22° C | 61% | 1004.9 hPa | 0 mm | - | 90 W/m² | - |
| 1778023636 | 27.78° C | 60% | 1005 hPa | 0 mm | - | 75 W/m² | - |
| 1778023333 | 28.33° C | 59% | 1004.8 hPa | 0 mm | - | 76 W/m² | - |
| 1778023030 | 28.89° C | 55% | 1004.7 hPa | 0 mm | - | 132 W/m² | - |
| 1778022729 | 29.44° C | 53% | 1004.6 hPa | 0 mm | - | 104 W/m² | - |
| 1778022427 | 29.44° C | 52% | 1004.4 hPa | 0 mm | - | 125 W/m² | - |
| 1778022123 | 29.44° C | 52% | 1004.2 hPa | 0 mm | - | 149 W/m² | - |
| 1778021819 | 30° C | 50% | 1004.2 hPa | 0 mm | - | 169 W/m² | - |
| 1778021516 | 30° C | 49% | 1004 hPa | 0 mm | - | 306 W/m² | - |
| 1778021211 | 30.56° C | 49% | 1004.1 hPa | 0 mm | - | 217 W/m² | - |
| 1778020910 | 31.67° C | 47% | 1004.1 hPa | 0 mm | - | 201 W/m² | - |
| 1778020607 | 32.78° C | 49% | 1004 hPa | 0 mm | - | 368 W/m² | - |
| 1778020303 | 32.22° C | 50% | 1003.6 hPa | 0 mm | - | 388 W/m² | - |
| 1778019999 | 32.78° C | 50% | 1003.5 hPa | 0 mm | - | 215 W/m² | - |
| 1778019695 | 32.78° C | 50% | 1003.6 hPa | 0 mm | - | 212 W/m² | - |
| 1778019392 | 33.33° C | 51% | 1003.7 hPa | 0 mm | - | 241 W/m² | - |
| 1778019089 | 32.78° C | 53% | 1003.7 hPa | 0 mm | - | 597 W/m² | - |
| 1778018786 | 32.78° C | 52% | 1003.5 hPa | 0 mm | - | 567 W/m² | - |
| 1778018483 | 31.67° C | 53% | 1003.7 hPa | 0 mm | - | 279 W/m² | - |
| 1778018181 | 32.22° C | 53% | 1003.9 hPa | 0 mm | - | 166 W/m² | - |
* Rain latest hour (hover to see other rain measurements)
** Current wind speed in m/s (hover to see current wind gust speed)